TimeEST,TemperatureF,Dew PointF,Humidity,Sea Level PressureIn,VisibilityMPH,Wind Direction,Wind SpeedMPH,Gust SpeedMPH,PrecipitationIn,Events,Conditions,WindDirDegrees,DateUTC
12:15 AM,26.1,23.4,90,30.19,10.0,Calm,Calm,-,N/A,,Clear,0,2013-01-04 05:15:00
12:35 AM,26.8,23.4,87,30.19,10.0,Calm,Calm,-,N/A,,Clear,0,2013-01-04 05:35:00
12:55 AM,27.0,23.7,88,30.18,10.0,Calm,Calm,-,N/A,,Clear,0,2013-01-04 05:55:00
1:15 AM,25.7,23.4,91,30.18,10.0,WSW,3.5,-,N/A,,Clear,240,2013-01-04 06:15:00
1:35 AM,25.7,23.4,91,30.18,10.0,Calm,Calm,-,N/A,,Clear,0,2013-01-04 06:35:00
1:55 AM,25.5,23.0,90,30.19,10.0,Calm,Calm,-,N/A,,Clear,0,2013-01-04 06:55:00
2:15 AM,25.9,23.9,92,30.19,10.0,Calm,Calm,-,N/A,,Clear,0,2013-01-04 07:15:00
2:35 AM,24.4,22.3,91,30.21,7.0,Calm,Calm,-,N/A,,Clear,0,2013-01-04 07:35:00
2:55 AM,24.3,22.6,94,30.21,10.0,Calm,Calm,-,N/A,,Clear,0,2013-01-04 07:55:00
3:15 AM,24.1,23.2,96,30.21,10.0,Calm,Calm,-,N/A,,Clear,0,2013-01-04 08:15:00
3:55 AM,24.1,23.0,96,30.21,10.0,Calm,Calm,-,N/A,,Clear,0,2013-01-04 08:55:00
6:35 AM,23.0,22.1,96,30.22,10.0,Calm,Calm,-,N/A,,Unknown,0,2013-01-04 11:35:00
6:55 AM,23.0,22.1,96,30.22,10.0,Calm,Calm,-,N/A,,Unknown,0,2013-01-04 11:55:00
7:15 AM,22.1,21.2,96,30.22,10.0,Calm,Calm,-,N/A,,Unknown,0,2013-01-04 12:15:00
7:35 AM,22.3,21.6,97,30.22,10.0,Calm,Calm,-,N/A,,Unknown,0,2013-01-04 12:35:00
7:55 AM,22.1,20.7,94,30.22,10.0,Calm,Calm,-,N/A,,Unknown,0,2013-01-04 12:55:00
8:15 AM,23.9,22.8,96,30.23,10.0,Calm,Calm,-,N/A,,Unknown,0,2013-01-04 13:15:00
8:35 AM,25.7,24.1,94,30.23,10.0,Calm,Calm,-,N/A,,Clear,0,2013-01-04 13:35:00
8:55 AM,27.3,25.2,92,30.22,10.0,Calm,Calm,-,N/A,,Clear,0,2013-01-04 13:55:00
9:15 AM,29.8,26.1,86,30.22,10.0,Calm,Calm,-,N/A,,Clear,0,2013-01-04 14:15:00
9:35 AM,32.0,27.3,83,30.23,10.0,Calm,Calm,-,N/A,,Clear,0,2013-01-04 14:35:00
9:55 AM,35.4,28.6,76,30.22,10.0,Calm,Calm,-,N/A,,Clear,0,2013-01-04 14:55:00
10:15 AM,40.3,26.4,58,30.23,10.0,West,4.6,-,N/A,,Clear,260,2013-01-04 15:15:00
10:35 AM,41.9,24.8,51,30.23,10.0,WSW,9.2,-,N/A,,Clear,250,2013-01-04 15:35:00
10:55 AM,42.3,24.1,49,30.22,10.0,West,9.2,-,N/A,,Clear,270,2013-01-04 15:55:00
11:15 AM,43.0,23.7,47,30.20,10.0,West,8.1,-,N/A,,Clear,260,2013-01-04 16:15:00
11:35 AM,44.2,23.7,44,30.20,10.0,WSW,4.6,-,N/A,,Clear,250,2013-01-04 16:35:00
11:55 AM,44.6,22.6,42,30.19,10.0,West,3.5,-,N/A,,Clear,280,2013-01-04 16:55:00
12:15 PM,45.0,23.2,42,30.18,10.0,WSW,8.1,-,N/A,,Clear,240,2013-01-04 17:15:00
12:35 PM,46.0,22.5,39,30.16,10.0,West,9.2,-,N/A,,Clear,270,2013-01-04 17:35:00
12:55 PM,46.4,22.3,39,30.15,10.0,WSW,6.9,-,N/A,,Clear,250,2013-01-04 17:55:00
1:15 PM,46.0,21.7,38,30.15,10.0,WNW,10.4,-,N/A,,Clear,300,2013-01-04 18:15:00
1:35 PM,46.6,21.7,37,30.14,10.0,West,5.8,17.3,N/A,,Clear,270,2013-01-04 18:35:00
1:55 PM,47.7,22.1,37,30.14,10.0,WSW,10.4,17.3,N/A,,Clear,250,2013-01-04 18:55:00
2:15 PM,47.5,21.2,35,30.13,10.0,WNW,8.1,18.4,N/A,,Clear,290,2013-01-04 19:15:00
2:35 PM,48.6,21.6,35,30.12,10.0,NW,8.1,-,N/A,,Clear,310,2013-01-04 19:35:00
2:55 PM,48.4,21.9,35,30.12,10.0,WSW,9.2,17.3,N/A,,Clear,240,2013-01-04 19:55:00
3:15 PM,48.4,21.7,35,30.12,10.0,WSW,10.4,-,N/A,,Clear,250,2013-01-04 20:15:00
3:35 PM,48.2,21.6,35,30.12,10.0,WSW,9.2,-,N/A,,Clear,240,2013-01-04 20:35:00
3:55 PM,46.8,21.6,37,30.13,10.0,WSW,4.6,-,N/A,,Clear,240,2013-01-04 20:55:00
4:15 PM,47.7,22.1,37,30.13,10.0,West,9.2,-,N/A,,Clear,260,2013-01-04 21:15:00
4:35 PM,46.8,21.2,36,30.12,10.0,West,6.9,-,N/A,,Clear,270,2013-01-04 21:35:00
4:55 PM,46.0,21.4,38,30.12,10.0,West,4.6,-,N/A,,Clear,260,2013-01-04 21:55:00
5:15 PM,45.3,21.7,39,30.13,10.0,WSW,3.5,-,N/A,,Clear,240,2013-01-04 22:15:00
5:35 PM,44.8,21.7,40,30.13,10.0,West,5.8,-,N/A,,Clear,270,2013-01-04 22:35:00
5:55 PM,40.8,25.0,53,30.14,10.0,SW,4.6,-,N/A,,Clear,220,2013-01-04 22:55:00
6:15 PM,42.6,23.5,47,30.14,10.0,West,3.5,-,N/A,,Clear,260,2013-01-04 23:15:00
6:35 PM,40.6,25.3,54,30.14,10.0,WSW,4.6,-,N/A,,Clear,250,2013-01-04 23:35:00
6:55 PM,40.1,25.2,55,30.15,10.0,SW,3.5,-,N/A,,Clear,220,2013-01-04 23:55:00
7:15 PM,42.8,23.4,46,30.15,10.0,West,5.8,-,N/A,,Clear,270,2013-01-05 00:15:00
7:35 PM,42.6,23.0,46,30.16,10.0,West,6.9,-,N/A,,Clear,280,2013-01-05 00:35:00
7:55 PM,40.3,24.1,52,30.16,10.0,Calm,Calm,-,N/A,,Clear,0,2013-01-05 00:55:00
8:15 PM,40.1,24.4,54,30.17,10.0,NW,4.6,-,N/A,,Clear,310,2013-01-05 01:15:00
8:35 PM,40.8,24.1,51,30.17,10.0,NW,3.5,-,N/A,,Clear,320,2013-01-05 01:35:00
8:55 PM,36.0,28.2,73,30.18,10.0,Calm,Calm,-,N/A,,Clear,0,2013-01-05 01:55:00
9:15 PM,38.3,26.6,63,30.18,10.0,West,5.8,-,N/A,,Clear,270,2013-01-05 02:15:00
9:35 PM,41.5,24.1,50,30.19,10.0,West,3.5,-,N/A,,Clear,260,2013-01-05 02:35:00
9:55 PM,37.9,25.2,60,30.19,10.0,WSW,5.8,-,N/A,,Clear,250,2013-01-05 02:55:00
10:15 PM,38.8,23.7,55,30.19,10.0,WSW,5.8,-,N/A,,Clear,240,2013-01-05 03:15:00
10:35 PM,37.8,23.4,56,30.19,10.0,WSW,4.6,-,N/A,,Clear,250,2013-01-05 03:35:00
10:55 PM,32.5,25.5,75,30.19,10.0,Calm,Calm,-,N/A,,Clear,0,2013-01-05 03:55:00
11:15 PM,32.5,25.3,75,30.19,10.0,WSW,4.6,-,N/A,,Clear,250,2013-01-05 04:15:00
11:35 PM,32.9,24.8,72,30.19,10.0,West,3.5,-,N/A,,Clear,260,2013-01-05 04:35:00
11:55 PM,31.8,25.0,76,30.19,10.0,Calm,Calm,-,N/A,,Clear,0,2013-01-05 04:55:00